User: anonymous   Login
Location: Newark
(39.0083°N, 20.7336°E)
Time: 12:22:42
(UTC+00:00)
Language:

ISS - Orbit

View from above orbital plane
View from above orbital plane
View from above satellite
View from above satellite

Ground track
Ground track

The orbit data is extracted from the following two-line orbital elements,

1 25544U 98067A   21297.21339955  .00004664  00000-0  93445-4 0  9997
2 25544  51.6442  64.7420 0004287 139.0631 290.2785 15.48785613308597
Epoch (UTC): 24 October 2021 05:07:17
Eccentricity: 0.0004287
inclination: 51.6442°
perigee height: 417 km
apogee height: 423 km
right ascension of ascending node: 64.7420°
argument of perigee: 139.0631°
revolutions per day: 15.48785613
mean anomaly at epoch: 290.2785°
orbit number at epoch: 30859

The dashed part of the orbit path shows where the satellite is in the earth's shadow,  

DLR